Powrót do katalogu

STARLINK-34156

AktywnyŁącznośćVLEO
NORAD 64108·PAYLOAD·🇺🇸 United States

Wystrzelony May 23, 2025 z Vandenberg Space Force Base

Loading…

Następne Przeloty (najbliższe 24 godziny)

TLE

ŚwieżeSource: CelesTrak SupGP

Epoka: Sep 14, 2026, 22:52 UTC

1 64108C 25110N   26257.95326389  .00010817  00000+0  34776-3 0  2578
2 64108  53.1593 226.2079 0001579  98.4080 128.4082 15.31704693    11

Śledź STARLINK-34156 w czasie rzeczywistym z AllMySat

Download on the App Store